Seattle Boeing, WA
on Wednesday, January 9, 2013

Wednesday
Previous Day Next Day
Daily Summary
 ActualAverage (KSEA)Record (KSEA)
Temperature
Mean Temperature °F 42°F  
Max Temperature 51°F 46°F 56°F (2003)
Min Temperature 37°F 37°F 13°F (1949)
Degree Days
Heating Degree Days 21 23  
Month to date heating degree days 215  
Since 1 July heating degree days 2153  
Cooling Degree Days 0 0  
Month to date cooling degree days 0  
Year to date cooling degree days 0  
Moisture
Dew Point 38°F   
Average Humidity 82    
Maximum Humidity 89    
Minimum Humidity 73    
Precipitation
Precipitation 1.15 in 0.19 in 2.83 in (1990)
Month to date precipitation 1.69  
Year to date precipitation 1.69  
Snow
Snow 0.00 in in 2.00 in (1963)
Month to date snowfall  
Since 1 July snowfall  
Snow Depth in   
Wind
Wind Speed 10 mph   
Max Wind Speed 15 mph   
Max Gust Speed 26 mph   
Visibility 9 miles   
Events Rain   

Key: T is trace of precipitation, MM is missing value
Source: NWS Daily Summary
Time(PST)TemperatureDew PointHumidity Pressure Visibility Wind DirectionWind SpeedGust SpeedPrecipitationEvents Conditions
12:53 AM 51.1°F 46.9°F 86% 29.75 in 7.0 miles South 13.8 mph 26.5 mph 0.07 in Rain Light Rain
1:53 AM 51.1°F 46.0°F 83% 29.75 in 6.0 miles South 15.0 mph 26.5 mph 0.08 in Rain Light Rain
2:53 AM 46.9°F 42.1°F 83% 29.75 in 5.0 miles WSW 6.9 mph - 0.21 in Rain Light Rain
3:53 AM 46.0°F 41.0°F 83% 29.71 in 10.0 miles WSW 8.1 mph - 0.09 in Rain Light Rain
4:53 AM 45.0°F 39.9°F 82% 29.69 in 5.0 miles SSW 5.8 mph - 0.11 in Rain Light Rain
5:40 AM 44.6°F 41.0°F 87% 29.68 in 7.0 miles ESE 8.1 mph - 0.09 in Rain Light Rain
5:53 AM 44.1°F 39.9°F 85% 29.68 in 8.0 miles ESE 8.1 mph - 0.11 in Rain Light Rain
6:53 AM 43.0°F 39.0°F 86% 29.71 in 7.0 miles South 5.8 mph - 0.12 in Rain Light Rain
7:53 AM 42.1°F 39.0°F 89% 29.73 in 7.0 miles South 10.4 mph - 0.10 in Rain Light Rain
8:53 AM 39.0°F 36.0°F 89% 29.76 in 5.0 miles SE 12.7 mph - 0.14 in Rain Rain
9:53 AM 37.0°F 34.0°F 89% 29.77 in 9.0 miles SE 9.2 mph - 0.09 in Rain Light Rain
10:31 AM 37.4°F 33.8°F 87% 29.77 in 10.0 miles SE 11.5 mph - 0.03 in Rain Light Rain
10:53 AM 37.9°F 35.1°F 89% 29.78 in 10.0 miles SE 11.5 mph - 0.03 in   Overcast
11:53 AM 39.9°F 36.0°F 86% 29.77 in 10.0 miles SE 9.2 mph - N/A   Overcast
12:53 PM 43.0°F 37.9°F 82% 29.76 in 10.0 miles SE 10.4 mph - N/A   Overcast
1:53 PM 45.0°F 39.0°F 80% 29.79 in 10.0 miles South 9.2 mph - N/A   Overcast
2:53 PM 44.1°F 37.9°F 79% 29.81 in 10.0 miles SSE 8.1 mph - N/A   Mostly Cloudy
3:53 PM 44.1°F 37.0°F 76% 29.84 in 10.0 miles SSE 5.8 mph - N/A   Overcast
4:53 PM 44.1°F 36.0°F 73% 29.86 in 10.0 miles South 8.1 mph - N/A   Overcast
5:53 PM 42.1°F 35.1°F 76% 29.88 in 10.0 miles SSE 9.2 mph - N/A   Overcast
6:53 PM 42.1°F 35.1°F 76% 29.89 in 10.0 miles SSE 9.2 mph - N/A   Overcast
7:53 PM 41.0°F 34.0°F 76% 29.91 in 10.0 miles SSE 9.2 mph - N/A   Mostly Cloudy
8:53 PM 39.9°F 34.0°F 79% 29.93 in 10.0 miles SSE 8.1 mph - N/A   Mostly Cloudy
9:53 PM 39.9°F 33.1°F 77% 29.94 in 10.0 miles SE 8.1 mph - N/A   Mostly Cloudy
10:53 PM 39.0°F 33.1°F 79% 29.95 in 10.0 miles SE 6.9 mph - N/A   Overcast
11:53 PM 39.0°F 33.1°F 79% 29.95 in 10.0 miles SE 5.8 mph - N/A   Overcast
Moon Phase
Jan. 09 Jan. 11 Jan. 18 Jan. 26 Feb. 03
Sunrise:07:55 AM (PST) Moon Rise:05:40 AM (PST)1/9
Sunset:04:37 PM (PST) Moon Set:02:45 PM (PST)1/9

Copyright © 2014 The Weather Underground, Inc.